| time (UTC) | temp F | wind direction | speed MPH | gust MPH | rain 1hr in | rain 24hr in | rain mn in | humidity % | barometer mb |
| 20260505234504 | 34 | 150 | 0.0 | 0.0 | 0.01 | 0.42 | 0.33 | 91 | 1009.4 |
| 20260505234003 | 34 | 150 | 0.0 | 0.0 | 0.01 | 0.42 | 0.33 | 91 | 1009.4 |
| 20260505233502 | 34 | 150 | 0.0 | 0.0 | 0.02 | 0.42 | 0.33 | 91 | 1009.2 |
| 20260505233002 | 34 | 150 | 0.0 | 0.0 | 0.02 | 0.42 | 0.33 | 91 | 1009.1 |
| 20260505232505 | 34 | 150 | 0.0 | 0.0 | 0.03 | 0.42 | 0.33 | 91 | 1009.1 |
| 20260505232001 | 34 | 150 | 0.0 | 0.0 | 0.03 | 0.42 | 0.33 | 91 | 1009.2 |
| 20260505231606 | 34 | 150 | 0.0 | 0.0 | 0.04 | 0.42 | 0.33 | 91 | 1009.2 |
| 20260505231103 | 34 | 150 | 0.0 | 0.0 | 0.05 | 0.42 | 0.33 | 91 | 1009.1 |
| 20260505230558 | 34 | 150 | 0.0 | 0.0 | 0.05 | 0.42 | 0.33 | 91 | 1008.8 |
| 20260505230056 | 34 | 150 | 0.0 | 0.0 | 0.06 | 0.42 | 0.33 | 91 | 1008.5 |
| 20260505225555 | 34 | 150 | 0.0 | 0.0 | 0.06 | 0.42 | 0.33 | 91 | 1008.4 |
| 20260505225055 | 34 | 150 | 0.0 | 0.0 | 0.07 | 0.42 | 0.33 | 91 | 1008.2 |
| 20260505224554 | 34 | 150 | 0.0 | 0.0 | 0.07 | 0.41 | 0.32 | 91 | 1008.0 |
| 20260505224053 | 34 | 150 | 0.0 | 0.0 | 0.07 | 0.41 | 0.32 | 91 | 1008.0 |
| 20260505223551 | 34 | 150 | 0.0 | 0.0 | 0.07 | 0.40 | 0.31 | 91 | 1007.8 |
| 20260505223054 | 34 | 150 | 0.0 | 0.0 | 0.07 | 0.40 | 0.31 | 91 | 1007.9 |
| 20260505222551 | 34 | 150 | 0.0 | 0.0 | 0.06 | 0.39 | 0.30 | 91 | 1007.8 |
| 20260505222051 | 34 | 150 | 0.0 | 0.0 | 0.07 | 0.39 | 0.30 | 91 | 1007.6 |
| 20260505221551 | 34 | 150 | 0.0 | 0.0 | 0.07 | 0.38 | 0.28 | 91 | 1007.5 |
| 20260505221051 | 35 | 150 | 0.0 | 0.0 | 0.06 | 0.37 | 0.28 | 91 | 1007.3 |
| 20260505220549 | 35 | 150 | 0.0 | 0.0 | 0.07 | 0.37 | 0.28 | 91 | 1007.3 |
| 20260505220048 | 35 | 150 | 0.0 | 0.0 | 0.06 | 0.36 | 0.27 | 91 | 1007.2 |
| 20260505215549 | 35 | 150 | 0.0 | 0.0 | 0.05 | 0.35 | 0.26 | 91 | 1007.2 |
| 20260505215048 | 35 | 150 | 0.0 | 1.0 | 0.06 | 0.35 | 0.26 | 91 | 1007.4 |
| 20260505214553 | 35 | 150 | 0.0 | 1.0 | 0.06 | 0.34 | 0.25 | 91 | 1007.4 |
| 20260505214049 | 35 | 150 | 0.0 | 0.0 | 0.06 | 0.34 | 0.25 | 91 | 1007.3 |
| 20260505213547 | 35 | 150 | 0.0 | 1.0 | 0.06 | 0.33 | 0.24 | 91 | 1007.3 |
| 20260505213048 | 35 | 150 | 0.0 | 1.0 | 0.07 | 0.33 | 0.24 | 90 | 1007.2 |
| 20260505212547 | 35 | 150 | 0.0 | 0.0 | 0.06 | 0.32 | 0.23 | 90 | 1007.3 |
| 20260505212047 | 35 | 150 | 0.0 | 0.0 | 0.07 | 0.32 | 0.23 | 90 | 1007.3 |
| 20260505211547 | 35 | 150 | 0.0 | 0.0 | 0.06 | 0.31 | 0.22 | 90 | 1007.4 |
| 20260505211051 | 36 | 150 | 0.0 | 0.0 | 0.06 | 0.31 | 0.22 | 90 | 1007.3 |
| 20260505210546 | 36 | 150 | 0.0 | 0.0 | 0.05 | 0.30 | 0.21 | 90 | 1007.4 |
| 20260505210046 | 36 | 150 | 0.0 | 0.0 | 0.06 | 0.30 | 0.21 | 90 | 1007.5 |
| 20260505205546 | 36 | 150 | 0.0 | 0.0 | 0.05 | 0.28 | 0.20 | 90 | 1007.6 |
| 20260505205049 | 36 | 150 | 0.0 | 5.0 | 0.05 | 0.28 | 0.20 | 90 | 1007.8 |
| 20260505204548 | 37 | 150 | 0.0 | 5.0 | 0.05 | 0.28 | 0.19 | 90 | 1007.6 |
| 20260505204045 | 37 | 150 | 0.0 | 3.0 | 0.04 | 0.27 | 0.18 | 90 | 1007.5 |
| 20260505203548 | 37 | 150 | 0.0 | 0.0 | 0.04 | 0.27 | 0.18 | 90 | 1007.5 |
| 20260505203048 | 37 | 150 | 0.0 | 0.0 | 0.04 | 0.26 | 0.17 | 91 | 1007.7 |
| 20260505202549 | 37 | 150 | 0.0 | 0.0 | 0.04 | 0.26 | 0.17 | 91 | 1007.6 |
| 20260505202049 | 37 | 150 | 0.0 | 6.0 | 0.03 | 0.25 | 0.16 | 90 | 1007.6 |
| 20260505201545 | 37 | 150 | 0.0 | 6.0 | 0.04 | 0.25 | 0.16 | 91 | 1007.7 |
| 20260505201043 | 38 | 150 | 0.0 | 2.0 | 0.05 | 0.25 | 0.16 | 91 | 1007.6 |
| 20260505200543 | 37 | 150 | 0.0 | 0.0 | 0.06 | 0.25 | 0.16 | 91 | 1007.4 |
| 20260505200047 | 38 | 150 | 0.0 | 3.0 | 0.05 | 0.24 | 0.15 | 91 | 1007.4 |
| 20260505195542 | 38 | 150 | 0.0 | 3.0 | 0.06 | 0.24 | 0.15 | 91 | 1007.4 |
| 20260505195042 | 37 | 150 | 0.0 | 2.0 | 0.05 | 0.23 | 0.14 | 91 | 1007.3 |
| 20260505194542 | 37 | 150 | 0.0 | 2.0 | 0.05 | 0.23 | 0.14 | 91 | 1007.3 |
| 20260505194041 | 37 | 150 | 0.0 | 2.0 | 0.05 | 0.23 | 0.14 | 91 | 1007.3 |
| 20260505193540 | 37 | 150 | 0.0 | 6.0 | 0.04 | 0.22 | 0.13 | 91 | 1007.2 |
| 20260505193041 | 37 | 150 | 1.0 | 6.0 | 0.04 | 0.22 | 0.13 | 91 | 1007.2 |
| 20260505192541 | 37 | 150 | 0.0 | 0.0 | 0.05 | 0.22 | 0.13 | 91 | 1007.3 |
| 20260505192041 | 36 | 150 | 0.0 | 0.0 | 0.05 | 0.22 | 0.13 | 91 | 1007.3 |
| 20260505191541 | 36 | 150 | 0.0 | 0.0 | 0.04 | 0.21 | 0.12 | 91 | 1007.3 |
| 20260505191040 | 36 | 150 | 0.0 | 0.0 | 0.03 | 0.20 | 0.11 | 91 | 1007.4 |
| 20260505190538 | 37 | 150 | 0.0 | 0.0 | 0.02 | 0.19 | 0.10 | 91 | 1007.5 |
| 20260505190041 | 37 | 150 | 0.0 | 0.0 | 0.02 | 0.19 | 0.10 | 91 | 1007.5 |
| 20260505185538 | 37 | 150 | 0.0 | 0.0 | 0.01 | 0.18 | 0.09 | 91 | 1007.5 |
| 20260505185038 | 37 | 150 | 0.0 | 8.0 | 0.01 | 0.18 | 0.09 | 91 | 1007.4 |
| 20260505184538 | 37 | 150 | 1.0 | 8.0 | 0.01 | 0.18 | 0.09 | 91 | 1007.3 |
| 20260505184038 | 37 | 154 | 0.0 | 1.0 | 0.01 | 0.18 | 0.09 | 91 | 1007.4 |
| 20260505183537 | 37 | 154 | 0.0 | 2.0 | 0.01 | 0.18 | 0.09 | 91 | 1007.4 |
| 20260505183040 | 37 | 154 | 0.0 | 6.0 | 0.01 | 0.18 | 0.09 | 91 | 1007.5 |
| 20260505182537 | 37 | 154 | 1.0 | 6.0 | 0.00 | 0.17 | 0.08 | 91 | 1007.5 |
| 20260505182040 | 37 | 154 | 0.0 | 5.0 | 0.00 | 0.17 | 0.08 | 91 | 1007.4 |
| 20260505181542 | 37 | 154 | 0.0 | 4.0 | 0.00 | 0.17 | 0.08 | 91 | 1007.4 |
| 20260505181037 | 37 | 154 | 0.0 | 4.0 | 0.00 | 0.17 | 0.08 | 91 | 1007.5 |
| 20260505180538 | 37 | 154 | 0.0 | 6.0 | 0.00 | 0.17 | 0.08 | 91 | 1007.5 |
| 20260505180040 | 37 | 154 | 0.0 | 6.0 | 0.00 | 0.17 | 0.08 | 91 | 1007.5 |
| 20260505175534 | 36 | 154 | 0.0 | 8.0 | 0.00 | 0.17 | 0.08 | 91 | 1007.5 |
| 20260505175035 | 37 | 154 | 0.0 | 6.0 | 0.00 | 0.17 | 0.08 | 91 | 1007.6 |
| 20260505174540 | 36 | 154 | 0.0 | 6.0 | 0.00 | 0.17 | 0.08 | 91 | 1007.5 |
| 20260505174034 | 37 | 154 | 0.0 | 6.0 | 0.00 | 0.17 | 0.08 | 91 | 1007.4 |
| 20260505173533 | 37 | 154 | 0.0 | 2.0 | 0.00 | 0.17 | 0.08 | 92 | 1007.4 |
| 20260505173035 | 36 | 154 | 0.0 | 6.0 | 0.00 | 0.17 | 0.08 | 92 | 1007.4 |
| 20260505172532 | 36 | 154 | 2.0 | 8.0 | 0.00 | 0.17 | 0.08 | 91 | 1007.3 |
| 20260505172031 | 36 | 155 | 2.0 | 10.0 | 0.00 | 0.17 | 0.08 | 91 | 1007.2 |
| 20260505171534 | 36 | 157 | 0.0 | 10.0 | 0.00 | 0.17 | 0.08 | 91 | 1007.1 |
| 20260505171034 | 36 | 159 | 3.0 | 10.0 | 0.00 | 0.17 | 0.08 | 91 | 1007.2 |
| 20260505170530 | 36 | 138 | 5.0 | 10.0 | 0.00 | 0.17 | 0.08 | 91 | 1007.2 |
| 20260505170028 | 36 | 138 | 0.0 | 9.0 | 0.00 | 0.17 | 0.08 | 91 | 1007.2 |
| 20260505165528 | 36 | 139 | 3.0 | 9.0 | 0.00 | 0.17 | 0.08 | 91 | 1007.1 |
| 20260505165028 | 36 | 138 | 3.0 | 8.0 | 0.00 | 0.17 | 0.08 | 91 | 1007.2 |
| 20260505164528 | 36 | 138 | 1.0 | 8.0 | 0.00 | 0.17 | 0.08 | 91 | 1007.3 |
| 20260505164028 | 36 | 138 | 1.0 | 10.0 | 0.00 | 0.17 | 0.08 | 91 | 1007.2 |
| 20260505163528 | 36 | 139 | 2.0 | 10.0 | 0.00 | 0.17 | 0.08 | 91 | 1007.2 |
| 20260505163025 | 36 | 139 | 4.0 | 10.0 | 0.00 | 0.17 | 0.08 | 92 | 1007.1 |
| 20260505162524 | 36 | 137 | 0.0 | 6.0 | 0.00 | 0.17 | 0.08 | 92 | 1007.2 |
| 20260505162026 | 36 | 141 | 0.0 | 8.0 | 0.00 | 0.17 | 0.08 | 92 | 1007.1 |
| 20260505161524 | 36 | 137 | 4.0 | 8.0 | 0.00 | 0.17 | 0.08 | 91 | 1007.0 |
| 20260505161024 | 36 | 137 | 2.0 | 7.0 | 0.00 | 0.17 | 0.08 | 91 | 1007.0 |
| 20260505160522 | 36 | 135 | 3.0 | 9.0 | 0.00 | 0.17 | 0.08 | 91 | 1006.9 |
| 20260505153017 | 35 | 134 | 2.0 | 9.0 | 0.01 | 0.17 | 0.08 | 91 | 1006.8 |
| 20260505152515 | 35 | 56 | 2.0 | 7.0 | 0.01 | 0.17 | 0.08 | 92 | 1006.8 |
| 20260505152018 | 35 | 56 | 0.0 | 4.0 | 0.01 | 0.17 | 0.08 | 91 | 1006.9 |
| 20260505151517 | 35 | 56 | 0.0 | 4.0 | 0.01 | 0.17 | 0.08 | 91 | 1006.8 |
| 20260505151013 | 35 | 56 | 0.0 | 4.0 | 0.01 | 0.17 | 0.08 | 92 | 1006.7 |
| 20260505150514 | 35 | 56 | 0.0 | 8.0 | 0.02 | 0.17 | 0.08 | 91 | 1006.7 |
| 20260505140502 | 35 | 56 | 0.0 | 3.0 | 0.01 | 0.15 | 0.06 | 91 | 1006.5 |
| 20260505130108 | 36 | 14 | 0.0 | 3.0 | 0.03 | 0.14 | 0.05 | 89 | 1005.1 |
| 20260505124553 | 37 | 29 | 0.0 | 3.0 | 0.02 | 0.13 | 0.04 | 89 | 1004.5 |
| 20260505124044 | 38 | 346 | 0.0 | 4.0 | 0.03 | 0.13 | 0.04 | 89 | 1004.3 |
| 20260505123543 | 38 | 55 | 0.0 | 7.0 | 0.03 | 0.13 | 0.04 | 89 | 1004.0 |
| 20260505123045 | 38 | 56 | 0.0 | 7.0 | 0.02 | 0.12 | 0.03 | 89 | 1003.8 |
| 20260505122540 | 39 | 356 | 0.0 | 3.0 | 0.02 | 0.12 | 0.03 | 89 | 1003.8 |
| 20260505122039 | 40 | 54 | 0.0 | 3.0 | 0.02 | 0.12 | 0.03 | 89 | 1003.9 |
| 20260505121538 | 40 | 44 | 0.0 | 2.0 | 0.03 | 0.12 | 0.03 | 89 | 1003.9 |
| 20260505121036 | 41 | 56 | 0.0 | 3.0 | 0.03 | 0.12 | 0.03 | 89 | 1003.7 |
| 20260505120535 | 41 | 41 | 0.0 | 3.0 | 0.02 | 0.11 | 0.02 | 90 | 1003.7 |
| 20260505120033 | 41 | 171 | 0.0 | 0.0 | 0.02 | 0.11 | 0.02 | 90 | 1003.7 |
| 20260505115534 | 41 | 171 | 0.0 | 0.0 | 0.02 | 0.11 | 0.02 | 90 | 1003.7 |
| 20260505115036 | 41 | 170 | 0.0 | 0.0 | 0.02 | 0.11 | 0.02 | 90 | 1003.7 |
| 20260505114534 | 41 | 169 | 0.0 | 0.0 | 0.01 | 0.10 | 0.01 | 90 | 1003.6 |
| 20260505114034 | 41 | 168 | 0.0 | 0.0 | 0.01 | 0.10 | 0.01 | 90 | 1003.5 |
| 20260505113535 | 41 | 168 | 0.0 | 0.0 | 0.01 | 0.10 | 0.01 | 90 | 1003.5 |
| 20260505113033 | 41 | 168 | 0.0 | 0.0 | 0.01 | 0.10 | 0.01 | 90 | 1003.5 |
| 20260505112634 | 41 | 168 | 0.0 | 0.0 | 0.01 | 0.10 | 0.01 | 90 | 1003.4 |
| 20260505112033 | 41 | 168 | 0.0 | 0.0 | 0.01 | 0.10 | 0.01 | 90 | 1003.5 |
| 20260505111538 | 41 | 168 | 0.0 | 0.0 | 0.00 | 0.09 | 0.00 | 89 | 1003.4 |
| 20260505111033 | 41 | 168 | 0.0 | 0.0 | 0.00 | 0.09 | 0.00 | 89 | 1003.4 |
| 20260505110532 | 41 | 168 | 0.0 | 0.0 | 0.00 | 0.09 | 0.00 | 89 | 1003.4 |
| 20260505102031 | 42 | 179 | 0.0 | 5.0 | 0.00 | 0.09 | 0.00 | 88 | 1002.7 |
| 20260505101527 | 43 | 179 | 0.0 | 5.0 | 0.00 | 0.09 | 0.00 | 88 | 1002.6 |
| 20260505101025 | 43 | 193 | 0.0 | 4.0 | 0.00 | 0.09 | 0.00 | 88 | 1002.3 |
| 20260505100526 | 43 | 251 | 0.0 | 1.0 | 0.00 | 0.09 | 0.00 | 88 | 1002.5 |
| 20260505100028 | 43 | 259 | 0.0 | 1.0 | 0.00 | 0.09 | 0.00 | 88 | 1002.5 |
| 20260505095521 | 44 | 259 | 0.0 | 0.0 | 0.00 | 0.09 | 0.00 | 89 | 1002.5 |
| 20260505095021 | 44 | 259 | 0.0 | 0.0 | 0.00 | 0.09 | 0.00 | 89 | 1002.4 |
| 20260505094521 | 44 | 256 | 0.0 | 0.0 | 0.00 | 0.09 | 0.00 | 89 | 1002.5 |
| 20260505094021 | 44 | 256 | 0.0 | 0.0 | 0.00 | 0.09 | 0.00 | 89 | 1002.5 |
| 20260505093520 | 44 | 256 | 0.0 | 0.0 | 0.00 | 0.09 | 0.00 | 88 | 1002.5 |
| 20260505093020 | 44 | 256 | 0.0 | 0.0 | 0.00 | 0.09 | 0.00 | 88 | 1002.6 |
| 20260505092522 | 44 | 256 | 0.0 | 0.0 | 0.00 | 0.09 | 0.00 | 88 | 1002.8 |
| 20260505092019 | 44 | 256 | 0.0 | 0.0 | 0.00 | 0.09 | 0.00 | 88 | 1002.8 |
| 20260505091518 | 44 | 256 | 0.0 | 0.0 | 0.00 | 0.09 | 0.00 | 88 | 1002.7 |
| 20260505091021 | 44 | 256 | 0.0 | 0.0 | 0.00 | 0.09 | 0.00 | 88 | 1002.7 |
| 20260505090519 | 45 | 256 | 0.0 | 0.0 | 0.00 | 0.09 | 0.00 | 88 | 1002.7 |
| 20260505090017 | 45 | 256 | 0.0 | 0.0 | 0.00 | 0.09 | 0.00 | 88 | 1002.5 |
| 20260505085516 | 45 | 256 | 0.0 | 0.0 | 0.00 | 0.09 | 0.00 | 88 | 1002.5 |
| 20260505085017 | 45 | 256 | 0.0 | 0.0 | 0.00 | 0.09 | 0.00 | 88 | 1002.5 |
| 20260505084519 | 45 | 256 | 0.0 | 0.0 | 0.00 | 0.09 | 0.00 | 88 | 1002.7 |
| 20260505084016 | 45 | 256 | 0.0 | 0.0 | 0.00 | 0.09 | 0.00 | 88 | 1002.7 |
| 20260505083515 | 45 | 256 | 0.0 | 0.0 | 0.00 | 0.09 | 0.00 | 87 | 1002.6 |
| 20260505083016 | 45 | 256 | 0.0 | 0.0 | 0.00 | 0.09 | 0.00 | 87 | 1002.7 |
| 20260505082513 | 45 | 256 | 0.0 | 0.0 | 0.00 | 0.09 | 0.00 | 87 | 1002.8 |
| 20260505082015 | 45 | 256 | 0.0 | 0.0 | 0.00 | 0.09 | 0.00 | 87 | 1002.9 |
| 20260505081512 | 45 | 256 | 0.0 | 0.0 | 0.00 | 0.09 | 0.00 | 87 | 1002.9 |
| 20260505081012 | 45 | 256 | 0.0 | 1.0 | 0.00 | 0.09 | 0.00 | 87 | 1002.9 |
| 20260505080514 | 45 | 257 | 0.0 | 0.0 | 0.00 | 0.09 | 0.00 | 88 | 1003.1 |
| 20260505080012 | 45 | 258 | 0.0 | 0.0 | 0.00 | 0.09 | 0.00 | 88 | 1003.0 |
| 20260505075509 | 45 | 257 | 0.0 | 0.0 | 0.00 | 0.09 | 0.00 | 89 | 1003.2 |
| 20260505075012 | 45 | 258 | 0.0 | 0.0 | 0.00 | 0.09 | 0.00 | 89 | 1003.3 |
| 20260505074509 | 45 | 257 | 0.0 | 0.0 | 0.00 | 0.09 | 0.00 | 89 | 1003.3 |
| 20260505074008 | 45 | 258 | 0.0 | 0.0 | 0.00 | 0.09 | 0.00 | 88 | 1003.3 |
| 20260505073509 | 45 | 258 | 0.0 | 0.0 | 0.00 | 0.09 | 0.00 | 88 | 1003.5 |
| 20260505073010 | 46 | 257 | 0.0 | 0.0 | 0.00 | 0.09 | 0.00 | 88 | 1003.4 |
| 20260505072508 | 46 | 258 | 0.0 | 0.0 | 0.00 | 0.09 | 0.00 | 88 | 1003.4 |
| 20260505072006 | 46 | 258 | 0.0 | 0.0 | 0.00 | 0.09 | 0.00 | 88 | 1003.3 |
| 20260505071515 | 46 | 257 | 0.0 | 0.0 | 0.00 | 0.09 | 0.00 | 88 | 1003.3 |
| 20260505071006 | 46 | 258 | 0.0 | 0.0 | 0.00 | 0.09 | 0.00 | 88 | 1003.5 |
| 20260505070505 | 46 | 258 | 0.0 | 0.0 | 0.00 | 0.09 | 0.00 | 88 | 1003.7 |
| 20260505070004 | 46 | 258 | 0.0 | 0.0 | 0.00 | 0.09 | 0.00 | 88 | 1003.6 |
| 20260505065503 | 46 | 258 | 0.0 | 0.0 | 0.00 | 0.09 | 0.00 | 88 | 1003.6 |
| 20260505065003 | 46 | 257 | 0.0 | 0.0 | 0.00 | 0.09 | 0.00 | 88 | 1003.7 |
| 20260505064503 | 46 | 258 | 0.0 | 0.0 | 0.00 | 0.09 | 0.00 | 87 | 1003.7 |
| 20260505064002 | 46 | 257 | 0.0 | 0.0 | 0.00 | 0.09 | 0.00 | 87 | 1003.7 |
| 20260505063502 | 46 | 257 | 0.0 | 0.0 | 0.00 | 0.09 | 0.00 | 87 | 1003.7 |
| 20260505063004 | 46 | 258 | 0.0 | 0.0 | 0.01 | 0.09 | 0.00 | 87 | 1003.7 |
| 20260505062502 | 46 | 258 | 0.0 | 0.0 | 0.01 | 0.09 | 0.00 | 87 | 1003.6 |
| 20260505062001 | 46 | 258 | 0.0 | 0.0 | 0.01 | 0.09 | 0.00 | 87 | 1003.5 |
| 20260505061603 | 46 | 258 | 0.0 | 0.0 | 0.02 | 0.09 | 0.00 | 87 | 1003.6 |
| 20260505061059 | 46 | 257 | 0.0 | 0.0 | 0.02 | 0.09 | 0.00 | 87 | 1003.6 |
| 20260505060559 | 46 | 257 | 0.0 | 0.0 | 0.02 | 0.09 | 0.00 | 87 | 1003.6 |
| 20260505060058 | 46 | 257 | 0.0 | 0.0 | 0.02 | 0.09 | 0.00 | 87 | 1003.8 |
| 20260505055557 | 46 | 258 | 0.0 | 0.0 | 0.03 | 0.09 | 0.09 | 87 | 1003.7 |
| 20260505055059 | 46 | 258 | 0.0 | 0.0 | 0.03 | 0.09 | 0.09 | 86 | 1003.6 |
| 20260505054559 | 46 | 258 | 0.0 | 0.0 | 0.03 | 0.09 | 0.09 | 86 | 1003.6 |
| 20260505054059 | 46 | 257 | 0.0 | 0.0 | 0.03 | 0.09 | 0.09 | 86 | 1003.5 |
| 20260505053556 | 46 | 258 | 0.0 | 0.0 | 0.04 | 0.09 | 0.09 | 85 | 1003.6 |
| 20260505053104 | 47 | 257 | 0.0 | 0.0 | 0.04 | 0.08 | 0.08 | 85 | 1003.7 |
| 20260505052556 | 47 | 257 | 0.0 | 0.0 | 0.05 | 0.08 | 0.08 | 84 | 1003.7 |
| 20260505052058 | 47 | 258 | 0.0 | 0.0 | 0.05 | 0.08 | 0.08 | 84 | 1003.8 |
| 20260505051555 | 47 | 257 | 0.0 | 0.0 | 0.05 | 0.07 | 0.07 | 84 | 1003.9 |
| 20260505051055 | 47 | 257 | 0.0 | 0.0 | 0.05 | 0.07 | 0.07 | 83 | 1004.0 |
| 20260505050555 | 47 | 257 | 0.0 | 0.0 | 0.06 | 0.07 | 0.07 | 84 | 1003.9 |
| 20260505041553 | 51 | 247 | 0.0 | 0.0 | 0.02 | 0.02 | 0.02 | 76 | 1003.7 |
| 20260505041048 | 51 | 246 | 0.0 | 0.0 | 0.02 | 0.02 | 0.02 | 74 | 1003.8 |
| 20260505040547 | 51 | 246 | 0.0 | 0.0 | 0.01 | 0.01 | 0.01 | 73 | 1003.6 |
| 20260505040050 | 51 | 246 | 0.0 | 0.0 | 0.01 | 0.01 | 0.01 | 72 | 1003.5 |
| 20260505035546 | 51 | 246 | 0.0 | 2.0 | 0.01 | 0.01 | 0.01 | 70 | 1003.5 |
| 20260505035045 | 52 | 246 | 0.0 | 2.0 | 0.00 | 0.00 | 0.00 | 67 | 1003.6 |
| 20260505034543 | 52 | 129 | 0.0 | 0.0 | 0.00 | 0.00 | 0.00 | 63 | 1003.4 |
| 20260505034044 | 52 | 129 | 0.0 | 0.0 | 0.00 | 0.00 | 0.00 | 61 | 1003.2 |
| 20260505033543 | 52 | 129 | 0.0 | 0.0 | 0.00 | 0.00 | 0.00 | 60 | 1003.2 |
| 20260505033047 | 52 | 129 | 0.0 | 0.0 | 0.00 | 0.00 | 0.00 | 58 | 1003.0 |
| 20260505032542 | 52 | 129 | 0.0 | 0.0 | 0.00 | 0.00 | 0.00 | 58 | 1002.8 |
| 20260505032044 | 51 | 129 | 0.0 | 0.0 | 0.00 | 0.00 | 0.00 | 58 | 1002.7 |
| 20260505031543 | 52 | 129 | 0.0 | 0.0 | 0.00 | 0.00 | 0.00 | 58 | 1002.6 |
| 20260505031042 | 51 | 129 | 0.0 | 0.0 | 0.00 | 0.00 | 0.00 | 58 | 1002.7 |
| 20260505030542 | 52 | 129 | 0.0 | 0.0 | 0.00 | 0.00 | 0.00 | 58 | 1002.4 |
| 20260505030042 | 52 | 129 | 0.0 | 0.0 | 0.00 | 0.00 | 0.00 | 58 | 1002.3 |
| 20260505025544 | 52 | 129 | 0.0 | 0.0 | 0.00 | 0.00 | 0.00 | 58 | 1002.3 |
| 20260505025041 | 52 | 129 | 0.0 | 0.0 | 0.00 | 0.00 | 0.00 | 57 | 1002.3 |
| 20260505024544 | 52 | 129 | 0.0 | 0.0 | 0.00 | 0.00 | 0.00 | 58 | 1002.2 |
| 20260505024041 | 52 | 129 | 0.0 | 0.0 | 0.00 | 0.00 | 0.00 | 57 | 1002.3 |
| 20260505023541 | 52 | 129 | 0.0 | 0.0 | 0.00 | 0.00 | 0.00 | 57 | 1002.1 |
| 20260505023042 | 52 | 129 | 0.0 | 0.0 | 0.00 | 0.00 | 0.00 | 57 | 1002.0 |
| 20260505022541 | 52 | 129 | 0.0 | 0.0 | 0.00 | 0.00 | 0.00 | 57 | 1002.0 |
| 20260505022043 | 52 | 129 | 0.0 | 0.0 | 0.00 | 0.00 | 0.00 | 56 | 1002.2 |
| 20260505021542 | 53 | 129 | 0.0 | 0.0 | 0.00 | 0.00 | 0.00 | 56 | 1002.0 |
| 20260505021040 | 53 | 129 | 0.0 | 1.0 | 0.00 | 0.00 | 0.00 | 55 | 1002.0 |
| 20260505020542 | 53 | 129 | 0.0 | 2.0 | 0.00 | 0.00 | 0.00 | 54 | 1002.2 |
| 20260505020040 | 54 | 129 | 0.0 | 2.0 | 0.00 | 0.00 | 0.00 | 53 | 1002.2 |
| 20260505015540 | 55 | 347 | 0.0 | 2.0 | 0.00 | 0.00 | 0.00 | 51 | 1002.0 |
| 20260505015040 | 55 | 342 | 0.0 | 2.0 | 0.00 | 0.00 | 0.00 | 49 | 1001.9 |
| 20260505014540 | 56 | 279 | 0.0 | 3.0 | 0.00 | 0.00 | 0.00 | 48 | 1001.5 |
| 20260505014041 | 56 | 279 | 0.0 | 6.0 | 0.00 | 0.00 | 0.00 | 47 | 1001.3 |
| 20260505013539 | 56 | 271 | 0.0 | 8.0 | 0.00 | 0.00 | 0.00 | 46 | 1001.4 |
| 20260505013039 | 57 | 272 | 1.0 | 8.0 | 0.00 | 0.00 | 0.00 | 45 | 1001.6 |
| 20260505012538 | 57 | 270 | 0.0 | 4.0 | 0.00 | 0.00 | 0.00 | 44 | 1001.5 |
| 20260505012041 | 57 | 277 | 0.0 | 15.0 | 0.00 | 0.00 | 0.00 | 44 | 1001.5 |
| 20260505011548 | 58 | 266 | 1.0 | 15.0 | 0.00 | 0.00 | 0.00 | 43 | 1001.6 |
| 20260505011041 | 58 | 272 | 2.0 | 10.0 | 0.00 | 0.00 | 0.00 | 43 | 1001.4 |
| 20260505010538 | 58 | 270 | 0.0 | 5.0 | 0.00 | 0.00 | 0.00 | 41 | 1001.2 |
| 20260505010039 | 59 | 269 | 0.0 | 4.0 | 0.00 | 0.00 | 0.00 | 41 | 1001.2 |
| 20260505005537 | 59 | 270 | 0.0 | 9.0 | 0.00 | 0.00 | 0.00 | 40 | 1001.1 |
| 20260505005037 | 59 | 269 | 0.0 | 9.0 | 0.00 | 0.00 | 0.00 | 39 | 1001.1 |
| 20260505004537 | 60 | 285 | 0.0 | 8.0 | 0.00 | 0.00 | 0.00 | 38 | 1001.0 |
| 20260505004036 | 60 | 272 | 0.0 | 7.0 | 0.00 | 0.00 | 0.00 | 38 | 1000.9 |
| 20260505003540 | 60 | 271 | 0.0 | 5.0 | 0.00 | 0.00 | 0.00 | 37 | 1000.8 |
| 20260505003036 | 60 | 271 | 0.0 | 5.0 | 0.00 | 0.00 | 0.00 | 37 | 1000.8 |
| 20260505002536 | 60 | 270 | 0.0 | 9.0 | 0.00 | 0.00 | 0.00 | 36 | 1000.7 |
| 20260505002036 | 61 | 263 | 0.0 | 14.0 | 0.00 | 0.00 | 0.00 | 36 | 1000.6 |
| 20260505001536 | 61 | 283 | 0.0 | 7.0 | 0.00 | 0.00 | 0.00 | 33 | 1000.5 |
| 20260505001035 | 61 | 287 | 0.0 | 5.0 | 0.00 | 0.00 | 0.00 | 33 | 1000.4 |
| 20260505000538 | 61 | 295 | 0.0 | 1.0 | 0.00 | 0.00 | 0.00 | 33 | 1000.3 |
| 20260505000035 | 62 | 195 | 0.0 | 1.0 | 0.00 | 0.00 | 0.00 | 32 | 1000.4 |
| 20260504235534 | 62 | 153 | 0.0 | 1.0 | 0.00 | 0.00 | 0.00 | 32 | 1000.3 |
| 20260504235036 | 62 | 251 | 0.0 | 2.0 | 0.00 | 0.00 | 0.00 | 32 | 1000.3 |